When you browse on this site, cookies collect data to enhance your experience and personalize the content and advertising you see.
Visit our Privacy Policy to learn more. By continuing to use the site, you agree to this use of cookies and data.
  • In Hungary
  • List of Countries
  • For 7 days
  • Water Temperature
  • Satellite Maps
  • Weather Map
  • News
  • Weather Widgets
  • user-avatar
    Login

    Hourly Weather Wichraz

    Today, 22 May, Wednesday

    Time Temperature Precipitation Wind Pressure Humidity
    00:00 +12°C° 0.4 mm 5 mps 719 mmHg 92%
    01:00 +12°C° 0 mm 4 mps 718 mmHg 94%
    02:00 +12°C° 0.7 mm 4 mps 718 mmHg 94%
    03:00 +12°C° 0.7 mm 4 mps 718 mmHg 94%
    04:00 +12°C° 0.7 mm 4 mps 719 mmHg 95%
    05:00 +12°C° 0.7 mm 4 mps 719 mmHg 93%
    06:00 +13°C° 0.7 mm 4 mps 719 mmHg 92%
    07:00 +13°C° 0.7 mm 4 mps 719 mmHg 91%
    08:00 +13°C° 0.6 mm 4 mps 719 mmHg 91%
    09:00 +13°C° 0.6 mm 4 mps 719 mmHg 91%
    10:00 +13°C° 0.6 mm 4 mps 720 mmHg 90%
    11:00 +14°C° 0.4 mm 4 mps 720 mmHg 89%
    12:00 +14°C° 0.4 mm 3 mps 720 mmHg 89%
    13:00 +14°C° 0.4 mm 3 mps 720 mmHg 88%
    14:00 +16°C° 0.8 mm 3 mps 720 mmHg 87%
    15:00 +15°C° 0.8 mm 4 mps 720 mmHg 86%
    16:00 +17°C° 0.8 mm 4 mps 720 mmHg 85%
    17:00 +15°C° 1.5 mm 5 mps 720 mmHg 87%
    18:00 +14°C° 1.5 mm 5 mps 720 mmHg 89%
    19:00 +13°C° 1.5 mm 5 mps 720 mmHg 92%
    20:00 +13°C° 1.3 mm 5 mps 721 mmHg 93%
    21:00 +13°C° 1.3 mm 5 mps 721 mmHg 94%
    22:00 +13°C° 1.3 mm 6 mps 721 mmHg 96%
    23:00 +13°C° 0.8 mm 5 mps 722 mmHg 96%

    Tomorrow, 23 May, Thursday

    Time Temperature Precipitation Wind Pressure Humidity
    00:00 +13°C° 0.8 mm 5 mps 722 mmHg 96%
    01:00 +13°C° 0.8 mm 5 mps 722 mmHg 96%
    02:00 +13°C° 1 mm 5 mps 722 mmHg 96%
    03:00 +13°C° 1 mm 4 mps 723 mmHg 96%
    04:00 +13°C° 1 mm 4 mps 723 mmHg 97%
    05:00 +13°C° 0.9 mm 4 mps 723 mmHg 96%
    06:00 +13°C° 0.9 mm 4 mps 723 mmHg 96%
    07:00 +13°C° 0.9 mm 4 mps 724 mmHg 96%
    08:00 +13°C° 1.1 mm 4 mps 724 mmHg 95%
    09:00 +12°C° 1.1 mm 5 mps 724 mmHg 95%
    10:00 +12°C° 1.1 mm 5 mps 725 mmHg 95%
    11:00 +12°C° 0.7 mm 5 mps 725 mmHg 95%
    12:00 +12°C° 0.7 mm 5 mps 725 mmHg 95%
    13:00 +11°C° 0.7 mm 6 mps 725 mmHg 94%
    14:00 +10°C° 1.1 mm 5 mps 725 mmHg 95%
    15:00 +10°C° 1.1 mm 5 mps 726 mmHg 95%
    16:00 +10°C° 1.1 mm 5 mps 726 mmHg 95%
    17:00 +10°C° 1.5 mm 5 mps 726 mmHg 95%
    18:00 +11°C° 1.5 mm 4 mps 726 mmHg 95%
    19:00 +11°C° 1.5 mm 4 mps 726 mmHg 95%
    20:00 +11°C° 1.1 mm 4 mps 726 mmHg 95%
    21:00 +11°C° 1.1 mm 4 mps 726 mmHg 95%
    22:00 +11°C° 1.1 mm 4 mps 727 mmHg 94%
    23:00 +10°C° 1.1 mm 4 mps 727 mmHg 95%

    Day after tomorrow, 24 May, Friday

    Time Temperature Precipitation Wind Pressure Humidity
    00:00 +10°C° 1.1 mm 4 mps 727 mmHg 95%
    01:00 +10°C° 1.1 mm 3 mps 727 mmHg 95%
    02:00 +10°C° 0.7 mm 3 mps 727 mmHg 95%
    03:00 +10°C° 0.7 mm 3 mps 727 mmHg 95%
    04:00 +10°C° 0.7 mm 3 mps 727 mmHg 95%
    05:00 +10°C° 0.4 mm 3 mps 727 mmHg 95%
    06:00 +9°C° 0.4 mm 3 mps 727 mmHg 94%
    07:00 +9°C° 0.4 mm 3 mps 727 mmHg 93%
    08:00 +10°C° 0 mm 3 mps 727 mmHg 88%
    09:00 +11°C° 0 mm 3 mps 727 mmHg 83%
    10:00 +12°C° 0 mm 3 mps 727 mmHg 78%
    11:00 +14°C° 0 mm 3 mps 727 mmHg 73%
    12:00 +16°C° 0 mm 3 mps 727 mmHg 67%
    13:00 +18°C° 0 mm 3 mps 727 mmHg 62%
    14:00 +18°C° 0 mm 3 mps 727 mmHg 63%
    15:00 +18°C° 0 mm 3 mps 726 mmHg 65%
    16:00 +18°C° 0 mm 3 mps 726 mmHg 66%
    17:00 +17°C° 0 mm 2 mps 726 mmHg 71%
    18:00 +16°C° 0 mm 2 mps 726 mmHg 76%
    19:00 +14°C° 0 mm 1 mps 726 mmHg 81%
    20:00 +13°C° 0 mm 1 mps 726 mmHg 83%
    21:00 +12°C° 0 mm 1 mps 726 mmHg 85%
    22:00 +11°C° 0 mm 1 mps 726 mmHg 87%
    23:00 +11°C° 0 mm 1 mps 726 mmHg 89%

    25 May, Saturday

    Time Temperature Precipitation Wind Pressure Humidity
    00:00 +10°C° 0 mm 1 mps 726 mmHg 91%
    01:00 +10°C° 0 mm 1 mps 726 mmHg 92%
    02:00 +10°C° 0 mm 1 mps 726 mmHg 92%
    03:00 +9°C° 0 mm 1 mps 726 mmHg 93%
    04:00 +8°C° 0 mm 2 mps 726 mmHg 93%
    05:00 +10°C° 0 mm 2 mps 726 mmHg 87%
    06:00 +13°C° 0 mm 2 mps 726 mmHg 82%
    07:00 +15°C° 0 mm 2 mps 726 mmHg 76%
    08:00 +16°C° 0 mm 2 mps 726 mmHg 71%
    09:00 +18°C° 0 mm 2 mps 727 mmHg 65%
    10:00 +19°C° 0 mm 2 mps 727 mmHg 60%
    11:00 +20°C° 0 mm 3 mps 727 mmHg 59%
    12:00 +20°C° 0 mm 3 mps 726 mmHg 57%
    13:00 +21°C° 0 mm 3 mps 726 mmHg 56%
    14:00 +21°C° 0 mm 3 mps 726 mmHg 57%
    15:00 +21°C° 0 mm 4 mps 726 mmHg 58%
    16:00 +21°C° 0 mm 4 mps 726 mmHg 60%
    17:00 +19°C° 0 mm 3 mps 726 mmHg 68%
    18:00 +17°C° 0 mm 2 mps 726 mmHg 75%
    19:00 +16°C° 0 mm 1 mps 726 mmHg 83%
    20:00 +15°C° 0 mm 1 mps 726 mmHg 86%
    21:00 +14°C° 0 mm 1 mps 726 mmHg 88%
    22:00 +13°C° 0 mm 1 mps 727 mmHg 91%
    23:00 +13°C° 0 mm 1 mps 727 mmHg 90%

    26 May, Sunday

    Time Temperature Precipitation Wind Pressure Humidity
    00:00 +13°C° 0 mm 1 mps 727 mmHg 89%
    01:00 +12°C° 0 mm 1 mps 727 mmHg 88%
    02:00 +12°C° 0 mm 1 mps 727 mmHg 90%
    03:00 +11°C° 0 mm 1 mps 726 mmHg 91%
    04:00 +10°C° 0 mm 1 mps 726 mmHg 93%
    05:00 +12°C° 0 mm 1 mps 726 mmHg 88%
    06:00 +13°C° 0 mm 2 mps 726 mmHg 82%
    07:00 +15°C° 0 mm 2 mps 726 mmHg 77%
    08:00 +16°C° 0 mm 3 mps 726 mmHg 73%
    09:00 +17°C° 0 mm 3 mps 726 mmHg 68%
    10:00 +18°C° 0 mm 4 mps 726 mmHg 63%
    11:00 +19°C° 0 mm 5 mps 726 mmHg 60%
    12:00 +20°C° 0 mm 5 mps 726 mmHg 57%
    13:00 +20°C° 0 mm 5 mps 726 mmHg 54%
    14:00 +20°C° 0 mm 5 mps 726 mmHg 55%
    15:00 +20°C° 0 mm 5 mps 726 mmHg 56%
    16:00 +20°C° 0 mm 4 mps 725 mmHg 58%
    17:00 +18°C° 0 mm 4 mps 725 mmHg 63%
    18:00 +17°C° 0 mm 3 mps 725 mmHg 68%
    19:00 +15°C° 0 mm 2 mps 725 mmHg 73%
    20:00 +14°C° 0 mm 2 mps 726 mmHg 75%
    21:00 +13°C° 0 mm 2 mps 726 mmHg 77%
    22:00 +12°C° 0 mm 2 mps 726 mmHg 79%
    23:00 +12°C° 0 mm 2 mps 726 mmHg 81%

    27 May, Monday

    Time Temperature Precipitation Wind Pressure Humidity
    00:00 +10°C° 0 mm 2 mps 726 mmHg 83%
    01:00 +10°C° 0 mm 2 mps 726 mmHg 85%
    02:00 +9°C° 0 mm 2 mps 726 mmHg 86%
    03:00 +10°C° 0 mm 1 mps 726 mmHg 87%
    04:00 +10°C° 0 mm 1 mps 726 mmHg 88%
    05:00 +12°C° 0 mm 1 mps 726 mmHg 82%
    06:00 +14°C° 0 mm 1 mps 726 mmHg 75%
    07:00 +16°C° 0 mm 1 mps 726 mmHg 69%
    08:00 +19°C° 0 mm 1 mps 726 mmHg 63%
    09:00 +21°C° 0 mm 1 mps 726 mmHg 58%
    10:00 +23°C° 0 mm 1 mps 726 mmHg 52%
    11:00 +23°C° 0 mm 1 mps 726 mmHg 52%
    12:00 +23°C° 0 mm 1 mps 725 mmHg 52%
    13:00 +23°C° 0 mm 1 mps 725 mmHg 52%
    14:00 +24°C° 0 mm 1 mps 725 mmHg 54%
    15:00 +24°C° 0 mm 2 mps 724 mmHg 56%
    16:00 +24°C° 0 mm 2 mps 724 mmHg 58%
    17:00 +21°C° 0.1 mm 2 mps 724 mmHg 64%
    18:00 +21°C° 0.1 mm 1 mps 723 mmHg 70%
    19:00 +19°C° 0.1 mm 1 mps 723 mmHg 76%
    20:00 +18°C° 0.2 mm 1 mps 723 mmHg 80%
    21:00 +16°C° 0.2 mm 1 mps 723 mmHg 84%
    22:00 +15°C° 0.2 mm 1 mps 724 mmHg 87%
    23:00 +15°C° 0.2 mm 1 mps 724 mmHg 88%
    Show more